�N����,����,�~����,�C��,���x,�C��,����,���ϕ���,�ő�u�ԕ���,�ő厞����,���˗�,�I�_���x,�n�����x,�ő啗���N��,DTYPE
"23/04/15","00:10",0.2,14.5,84.8,1009.5,303.0,1.8,2.5,311.8,0.00,12.0,15.0,"00:03:36",1
"23/04/15","00:20",0.0,14.3,86.4,1009.7,314.2,2.0,3.1,309.6,0.00,12.1,15.0,"00:16:24",1
"23/04/15","00:30",0.2,14.1,87.7,1009.5,314.9,2.2,3.2,341.5,0.00,12.1,15.1,"00:25:52",1
"23/04/15","00:40",0.2,14.1,88.7,1009.5,322.8,2.5,3.9,316.7,0.00,12.3,15.0,"00:32:16",1
"23/04/15","00:50",0.2,13.9,89.3,1009.5,289.9,1.0,1.8,303.2,0.00,12.2,15.0,"00:40:08",1
"23/04/15","01:00",0.2,13.9,89.9,1009.3,280.1,1.1,1.3,262.6,0.00,12.3,14.8,"00:51:28",1
"23/04/15","01:10",0.6,13.9,90.5,1009.3,289.0,1.3,2.0,283.7,0.00,12.4,15.0,"01:08:40",1
"23/04/15","01:20",0.4,13.8,90.9,1009.7,306.5,1.2,1.7,326.9,0.00,12.4,14.7,"01:11:20",1
"23/04/15","01:30",0.8,13.8,91.4,1009.3,323.5,1.3,1.9,325.8,0.00,12.5,14.9,"01:28:56",1
"23/04/15","01:40",0.6,13.8,91.8,1009.3,326.2,1.5,2.0,334.6,0.00,12.5,14.9,"01:34:48",1
"23/04/15","01:50",0.4,13.8,92.2,1009.3,331.3,1.3,2.2,344.9,0.00,12.6,14.8,"01:42:40",1
"23/04/15","02:00",0.8,13.8,92.5,1009.3,300.1,1.1,1.6,312.5,0.00,12.6,14.8,"01:50:16",1
"23/04/15","02:10",0.6,13.8,92.8,1009.0,277.9,1.0,1.7,267.2,0.00,12.7,14.6,"02:02:32",1
"23/04/15","02:20",0.8,14.0,93.3,1008.8,211.9,1.3,3.4,136.6,0.00,13.0,14.8,"02:15:44",1
"23/04/15","02:30",0.6,13.9,93.4,1009.0,167.0,1.5,2.8,184.0,0.00,12.9,15.0,"02:27:24",1
"23/04/15","02:40",0.8,13.7,93.7,1008.8,134.0,1.1,2.2,98.5,0.00,12.7,14.8,"02:37:34",1
"23/04/15","02:50",0.2,13.6,94.0,1008.3,145.4,1.0,3.1,128.7,0.00,12.7,14.6,"02:41:46",1
"23/04/15","03:00",0.6,13.4,94.2,1008.6,103.6,0.5,1.2,95.9,0.00,12.5,14.7,"02:50:46",1
"23/04/15","03:10",0.4,13.5,94.3,1008.1,54.3,0.5,1.1,88.5,0.00,12.6,14.7,"03:01:46",1
"23/04/15","03:20",0.6,13.2,94.6,1007.8,112.4,1.0,1.7,115.6,0.00,12.4,14.7,"03:16:38",1
"23/04/15","03:30",0.4,13.2,94.8,1007.6,114.0,0.3,1.1,118.9,0.00,12.4,14.6,"03:20:16",1
"23/04/15","03:40",0.4,13.1,94.8,1007.4,313.3,0.6,1.3,125.4,0.00,12.3,14.7,"03:31:52",1
"23/04/15","03:50",0.6,12.9,95.0,1007.6,300.9,0.7,1.3,264.7,0.00,12.2,14.6,"03:47:04",1
"23/04/15","04:00",0.4,12.8,95.2,1006.9,277.8,0.7,1.8,252.9,0.00,12.1,14.6,"03:55:24",1
"23/04/15","04:10",0.4,12.8,95.4,1006.7,283.5,1.2,1.8,305.8,0.00,12.1,14.5,"04:05:16",1
"23/04/15","04:20",0.4,12.8,95.4,1006.4,268.0,1.0,2.0,291.2,0.00,12.1,14.6,"04:11:40",1
"23/04/15","04:30",0.2,12.9,95.6,1006.4,271.0,1.3,1.9,262.0,0.00,12.3,14.5,"04:24:02",1
"23/04/15","04:40",0.2,12.9,95.7,1006.2,268.0,1.6,2.4,263.1,0.00,12.3,14.5,"04:38:56",1
"23/04/15","04:50",0.4,13.0,95.7,1005.7,280.9,0.7,1.7,327.3,0.00,12.4,14.5,"04:40:02",1
"23/04/15","05:00",0.4,13.0,95.9,1005.7,293.6,1.6,2.4,323.1,0.00,12.4,14.3,"04:52:24",1
"23/04/15","05:10",0.4,12.9,96.0,1005.5,303.1,1.7,2.9,311.0,0.00,12.3,14.6,"05:00:16",1
"23/04/15","05:20",0.4,12.8,96.1,1005.2,311.6,1.2,2.4,300.2,0.00,12.2,14.3,"05:12:16",1
"23/04/15","05:30",0.4,12.8,96.2,1005.2,295.3,1.1,2.1,316.5,0.00,12.3,14.2,"05:29:30",1
"23/04/15","05:40",0.2,12.8,96.3,1005.2,298.0,1.0,2.0,312.2,0.00,12.3,14.5,"05:32:38",1
"23/04/15","05:50",0.4,12.9,96.4,1005.0,317.0,0.7,1.8,320.0,0.00,12.4,14.4,"05:48:28",1
"23/04/15","06:00",0.2,13.0,96.5,1004.5,122.0,0.6,2.1,121.8,0.00,12.5,14.5,"05:58:08",1
"23/04/15","06:10",0.2,12.9,96.5,1004.8,103.4,1.2,3.3,114.3,0.00,12.4,14.4,"06:07:52",1
"23/04/15","06:20",0.2,12.8,96.6,1004.5,107.7,1.5,3.5,104.5,0.00,12.3,14.6,"06:17:22",1
"23/04/15","06:30",0.0,12.8,96.7,1004.5,108.8,1.0,2.6,117.9,0.00,12.3,14.2,"06:22:16",1
"23/04/15","06:40",0.2,12.7,96.7,1004.3,120.4,1.0,3.2,120.3,0.00,12.2,14.4,"06:38:16",1
"23/04/15","06:50",0.0,12.7,96.8,1004.1,85.1,1.2,3.9,122.1,0.00,12.2,14.3,"06:47:18",1
"23/04/15","07:00",0.0,12.7,96.8,1004.3,127.4,0.8,1.9,126.6,0.00,12.2,14.5,"06:54:56",1
"23/04/15","07:10",0.2,12.7,96.7,1004.1,160.3,0.6,1.2,180.8,0.00,12.2,14.3,"07:02:28",1
"23/04/15","07:20",0.0,12.6,96.8,1003.8,114.1,0.8,2.0,107.7,0.00,12.1,14.3,"07:17:26",1
"23/04/15","07:30",0.2,12.7,96.8,1003.8,40.0,0.7,2.0,114.2,0.00,12.2,14.4,"07:25:06",1
"23/04/15","07:40",0.0,12.6,96.8,1003.8,282.3,0.6,1.9,327.1,0.00,12.1,14.4,"07:33:36",1
"23/04/15","07:50",0.4,12.6,96.9,1003.6,332.9,0.7,2.0,345.2,0.00,12.2,14.3,"07:46:32",1
"23/04/15","08:00",0.4,12.6,96.9,1003.4,49.2,1.0,2.9,125.2,0.01,12.2,14.2,"07:55:56",1
"23/04/15","08:10",0.6,12.6,96.9,1004.3,246.7,1.1,1.7,268.3,0.00,12.2,14.2,"08:06:32",1
"23/04/15","08:20",0.6,12.7,96.9,1004.1,287.9,1.1,1.9,311.3,0.00,12.3,14.5,"08:19:58",1
"23/04/15","08:30",0.8,12.7,97.0,1004.1,92.8,0.8,2.8,117.4,0.02,12.3,14.3,"08:23:20",1
"23/04/15","08:40",0.6,12.8,97.0,1003.8,103.5,0.7,3.3,120.1,0.03,12.4,14.1,"08:32:32",1
"23/04/15","08:50",0.4,12.7,97.0,1004.1,118.9,1.0,3.7,114.8,0.03,12.3,14.2,"08:49:48",1
"23/04/15","09:00",0.6,12.7,97.1,1003.8,116.8,1.5,3.5,116.4,0.03,12.3,14.4,"08:51:50",1
"23/04/15","09:10",0.4,12.8,97.1,1003.4,125.0,1.0,2.2,122.1,0.02,12.4,14.1,"09:09:04",1
"23/04/15","09:20",0.2,12.7,97.2,1003.6,130.6,1.7,3.4,126.3,0.03,12.3,14.1,"09:13:32",1
"23/04/15","09:30",0.2,12.8,97.2,1003.1,116.9,1.5,2.5,118.9,0.04,12.4,14.2,"09:20:34",1
"23/04/15","09:40",0.2,12.9,97.3,1002.9,115.4,1.2,2.2,108.8,0.05,12.5,14.2,"09:37:42",1
"23/04/15","09:50",0.2,12.9,97.2,1003.1,120.6,0.7,1.9,111.9,0.04,12.5,14.1,"09:49:30",1
"23/04/15","10:00",0.2,13.0,97.3,1003.1,117.1,1.0,2.0,121.0,0.03,12.6,14.2,"09:54:40",1
"23/04/15","10:10",0.2,13.0,97.4,1002.6,104.4,1.1,2.5,121.2,0.03,12.6,14.3,"10:07:32",1
"23/04/15","10:20",0.2,13.1,97.3,1002.6,212.1,0.6,1.7,321.0,0.03,12.7,14.2,"10:10:48",1
"23/04/15","10:30",0.0,13.2,97.4,1002.4,120.6,0.7,1.9,89.7,0.04,12.8,14.3,"10:24:40",1
"23/04/15","10:40",0.0,13.3,97.3,1002.4,194.9,0.5,1.2,84.8,0.03,12.9,14.1,"10:34:16",1
"23/04/15","10:50",0.0,13.5,97.3,1002.2,132.5,0.6,1.8,120.9,0.04,13.1,14.2,"10:43:36",1
"23/04/15","11:00",0.0,13.5,97.3,1002.2,39.3,1.0,2.1,347.5,0.03,13.1,14.3,"10:55:28",1
"23/04/15","11:10",0.0,13.6,97.2,1001.7,324.2,0.6,1.4,338.7,0.02,13.2,14.1,"11:01:04",1
"23/04/15","11:20",0.0,13.6,97.2,1001.5,289.1,0.5,1.6,134.4,0.02,13.2,14.2,"11:16:48",1
"23/04/15","11:30",0.0,13.7,97.3,1001.5,293.9,0.6,2.1,101.2,0.01,13.3,14.2,"11:23:28",1
"23/04/15","11:40",0.0,13.8,97.2,1001.0,306.1,0.7,1.3,313.5,0.01,13.4,14.2,"11:32:16",1
"23/04/15","11:50",0.2,13.8,97.2,1001.0,321.7,0.7,1.8,341.3,0.01,13.4,14.2,"11:41:52",1
"23/04/15","12:00",0.0,13.8,97.2,1000.8,279.7,0.6,1.4,113.5,0.01,13.4,14.1,"11:57:04",1
"23/04/15","12:10",0.2,13.8,97.2,1000.5,351.9,0.8,2.0,31.9,0.01,13.4,14.0,"12:01:12",1
"23/04/15","12:20",0.2,13.8,97.2,1000.5,349.7,0.6,2.0,332.8,0.02,13.4,14.3,"12:10:16",1
"23/04/15","12:30",0.0,13.7,97.2,1000.3,49.7,1.1,3.6,121.9,0.03,13.3,14.1,"12:24:24",1
"23/04/15","12:40",0.2,13.7,97.2,999.6,332.5,1.0,2.4,318.8,0.02,13.3,14.3,"12:31:12",1
"23/04/15","12:50",0.0,13.9,97.2,999.6,300.3,0.6,1.9,317.2,0.02,13.5,14.2,"12:48:16",1
"23/04/15","13:00",0.0,13.9,97.2,999.3,306.6,0.6,1.8,306.1,0.03,13.5,14.3,"12:53:04",1
"23/04/15","13:10",0.2,13.9,97.1,999.3,8.4,0.6,1.3,305.1,0.04,13.5,14.3,"13:02:48",1
"23/04/15","13:20",0.4,13.8,97.2,998.9,351.3,0.7,2.0,7.4,0.05,13.4,14.0,"13:13:20",1
"23/04/15","13:30",0.4,13.8,97.1,998.9,59.5,0.7,2.0,133.1,0.04,13.4,14.4,"13:28:24",1
"23/04/15","13:40",0.4,13.9,97.1,998.9,63.5,0.5,1.2,41.4,0.04,13.5,14.3,"13:36:32",1
"23/04/15","13:50",0.2,14.0,97.1,998.4,10.9,0.5,1.2,321.0,0.05,13.6,14.3,"13:40:34",1
"23/04/15","14:00",0.2,13.9,97.1,997.9,120.1,0.5,1.2,123.7,0.05,13.5,14.3,"13:57:44",1
"23/04/15","14:10",0.0,14.0,97.1,997.4,80.3,0.5,1.1,20.0,0.05,13.6,14.3,"14:05:44",1
"23/04/15","14:20",0.0,14.2,97.0,997.4,215.8,0.5,1.4,299.5,0.04,13.8,14.4,"14:15:28",1
"23/04/15","14:30",0.2,14.0,97.0,997.2,197.4,0.6,1.9,158.6,0.02,13.6,14.5,"14:26:16",1
"23/04/15","14:40",0.0,14.2,97.0,996.7,307.6,0.5,1.3,319.8,0.03,13.8,14.2,"14:30:48",1
"23/04/15","14:50",0.0,14.2,97.0,996.5,285.9,0.5,1.2,329.8,0.03,13.8,14.1,"14:49:44",1
"23/04/15","15:00",0.0,14.2,97.0,995.8,331.4,1.0,2.1,343.4,0.04,13.8,14.4,"14:56:58",1
"23/04/15","15:10",0.0,14.2,97.0,996.0,266.1,0.8,1.7,298.9,0.01,13.8,14.2,"15:00:16",1
"23/04/15","15:20",0.0,14.3,96.9,995.8,249.2,0.5,1.6,128.5,0.04,13.9,14.3,"15:19:36",1
"23/04/15","15:30",0.0,14.4,96.9,996.3,279.5,1.0,2.0,322.4,0.01,14.0,14.4,"15:26:50",1
"23/04/15","15:40",0.0,14.4,96.9,996.0,310.3,1.8,2.2,320.1,0.00,14.0,14.3,"15:38:18",1
"23/04/15","15:50",0.0,14.3,96.9,995.8,295.1,1.6,2.5,313.0,0.00,13.9,14.2,"15:41:04",1
"23/04/15","16:00",0.2,14.4,97.0,995.6,295.2,0.8,1.3,270.6,0.03,14.0,14.3,"15:50:16",1
"23/04/15","16:10",0.2,14.5,96.9,995.3,298.1,0.8,1.2,314.0,0.02,14.1,14.4,"16:03:04",1
"23/04/15","16:20",0.0,14.4,96.9,995.3,263.4,0.7,1.1,268.3,0.02,14.0,14.3,"16:13:52",1
"23/04/15","16:30",0.2,14.3,96.9,994.8,284.7,1.0,1.2,273.0,0.01,13.9,14.3,"16:22:32",1
"23/04/15","16:40",0.0,14.3,97.0,994.8,274.9,1.1,1.4,274.2,0.01,13.9,14.4,"16:36:48",1
"23/04/15","16:50",0.0,14.3,97.0,994.4,270.5,1.3,2.4,250.7,0.02,13.9,14.3,"16:49:12",1
"23/04/15","17:00",0.2,14.4,97.0,994.6,274.8,1.3,1.9,264.5,0.02,14.0,14.5,"16:59:44",1
"23/04/15","17:10",0.0,14.3,97.1,994.4,287.2,1.2,2.0,268.4,0.01,13.9,14.5,"17:00:08",1
"23/04/15","17:20",0.0,14.3,97.1,994.4,298.3,1.1,2.0,319.0,0.02,13.9,14.3,"17:14:24",1
"23/04/15","17:30",0.0,14.3,97.2,994.4,287.9,1.2,1.9,258.7,0.01,13.9,14.5,"17:29:20",1
"23/04/15","17:40",0.0,14.3,97.1,994.4,271.0,1.3,2.0,268.4,0.00,13.9,14.4,"17:31:12",1
"23/04/15","17:50",0.0,14.2,97.2,994.4,275.2,1.3,2.2,257.4,0.00,13.8,14.2,"17:42:40",1
"23/04/15","18:00",0.0,14.3,97.3,994.1,284.6,1.2,1.7,283.7,0.00,13.9,14.6,"17:54:32",1
"23/04/15","18:10",0.0,14.3,97.3,994.1,270.8,1.3,2.2,263.4,0.00,13.9,14.3,"18:04:56",1
"23/04/15","18:20",0.0,14.3,97.3,994.1,294.7,1.3,1.9,266.9,0.00,13.9,14.4,"18:11:44",1
"23/04/15","18:30",0.0,14.3,97.4,994.1,303.8,1.5,2.1,314.9,0.00,13.9,14.5,"18:26:16",1
"23/04/15","18:40",0.0,14.3,97.4,994.1,296.2,1.5,2.0,263.9,0.00,13.9,14.5,"18:39:12",1
"23/04/15","18:50",0.0,14.2,97.4,994.4,290.5,1.1,1.4,317.8,0.00,13.8,14.6,"18:43:28",1
"23/04/15","19:00",0.0,14.2,97.5,994.1,297.2,1.2,1.6,295.3,0.00,13.8,14.4,"18:51:28",1
"23/04/15","19:10",0.0,14.2,97.5,994.4,286.9,1.3,1.8,295.6,0.00,13.8,14.2,"19:03:36",1
"23/04/15","19:20",0.0,14.2,97.5,993.9,282.4,1.2,1.6,263.7,0.00,13.8,14.5,"19:14:00",1
"23/04/15","19:30",0.0,14.2,97.6,993.9,297.1,1.5,1.9,317.4,0.00,13.9,14.5,"19:29:36",1
"23/04/15","19:40",0.0,14.2,97.7,993.7,312.7,1.5,2.0,324.6,0.00,13.9,14.5,"19:35:20",1
"23/04/15","19:50",0.0,14.2,97.7,993.9,304.7,1.3,1.7,323.7,0.00,13.9,14.2,"19:41:36",1
"23/04/15","20:00",0.0,14.1,97.8,993.4,315.6,1.8,2.2,330.8,0.00,13.8,14.6,"19:56:48",1
"23/04/15","20:10",0.0,14.1,97.8,993.4,303.8,1.3,2.0,313.7,0.00,13.8,14.4,"20:00:32",1
"23/04/15","20:20",0.0,14.1,97.9,993.7,294.3,1.3,1.8,278.4,0.00,13.8,14.5,"20:17:44",1
"23/04/15","20:30",0.0,14.2,97.9,993.7,300.3,1.5,1.8,305.1,0.00,13.9,14.3,"20:20:08",1
"23/04/15","20:40",0.0,14.2,97.9,993.9,298.4,1.6,2.4,317.4,0.00,13.9,14.7,"20:34:16",1
"23/04/15","20:50",0.0,14.1,97.9,993.9,325.5,2.0,2.9,337.5,0.00,13.8,14.6,"20:46:08",1
"23/04/15","21:00",0.0,14.1,98.0,993.9,317.0,1.6,2.4,333.1,0.00,13.8,14.4,"20:50:08",1
"23/04/15","21:10",0.0,14.2,97.6,993.9,295.6,1.7,2.4,323.5,0.00,13.9,14.5,"21:04:48",1
"23/04/15","21:20",0.0,14.1,98.0,993.7,300.9,1.5,2.2,314.2,0.00,13.8,14.5,"21:18:32",1
"23/04/15","21:30",0.0,14.3,97.6,993.7,292.1,1.6,2.0,308.5,0.00,14.0,14.3,"21:24:56",1
"23/04/15","21:40",0.0,14.2,98.0,993.7,299.2,1.3,1.7,311.4,0.00,13.9,14.5,"21:31:52",1
"23/04/15","21:50",0.0,14.3,97.6,993.9,291.8,1.0,1.6,260.4,0.00,14.0,14.4,"21:49:20",1
"23/04/15","22:00",0.0,14.3,98.1,993.9,305.9,1.7,2.7,315.9,0.00,14.0,14.4,"21:59:44",1
"23/04/15","22:10",0.2,14.4,97.6,993.9,313.8,1.8,2.8,310.7,0.00,14.1,14.4,"22:00:08",1
"23/04/15","22:20",0.2,14.3,98.1,993.7,320.1,1.3,1.9,321.1,0.00,14.0,14.5,"22:11:52",1
"23/04/15","22:30",0.0,14.4,97.7,994.4,317.1,1.5,2.0,318.6,0.00,14.1,14.4,"22:22:40",1
"23/04/15","22:40",0.4,14.4,98.2,994.1,331.7,0.7,1.4,333.1,0.00,14.2,14.5,"22:38:52",1
"23/04/15","22:50",0.2,14.5,97.7,993.9,326.1,0.7,1.2,323.7,0.00,14.2,14.3,"22:49:56",1
"23/04/15","23:00",0.2,14.4,98.2,993.7,330.8,0.7,1.4,336.3,0.00,14.2,14.4,"22:54:22",1
"23/04/15","23:10",0.0,14.6,97.7,993.2,266.2,0.7,1.4,260.5,0.00,14.3,14.3,"23:08:10",1
"23/04/15","23:20",0.0,14.5,98.2,993.7,264.0,1.2,2.0,250.8,0.00,14.3,14.5,"23:12:20",1
"23/04/15","23:30",0.0,14.5,97.7,993.9,255.1,0.7,1.1,267.3,0.00,14.2,14.4,"23:20:50",1
"23/04/15","23:40",0.0,14.4,98.2,993.2,300.1,0.8,1.4,329.1,0.00,14.2,14.4,"23:38:46",1
"23/04/15","23:50",0.0,14.6,97.8,993.4,298.9,1.2,2.1,335.8,0.00,14.3,14.4,"23:42:10",1
"23/04/15","24:00",0.0,14.4,98.3,993.4,294.6,0.5,1.0,308.8,0.00,14.2,14.6,"23:59:24",1
